HB9EKO-12 Weather Reports


time (UTC)temp
F
wind
direction
speed
knots
gust
knots
rain 1hr
in
rain 24hr
in
rain mn
in
humidity
%
barometer
mb
20260506154046 52 0 2.6 0.0 0.00 0.00 0.00 94 1010.0
20260506152541 53 0 0.9 0.0 0.00 0.00 0.00 92 1011.0
20260506151035 53 0 4.3 0.0 0.00 0.00 0.00 91 1011.0
20260506145530 53 0 4.3 0.0 0.00 0.00 0.00 95 1011.0
20260506144025 52 0 5.2 0.0 0.00 0.00 0.00 99 1010.0
20260506142520 52 0 3.5 0.0 0.00 0.00 0.00 99 1010.0
20260506141015 52 0 5.2 0.0 0.00 0.00 0.00 10 1010.0
20260506135509 51 0 6.1 0.0 0.00 0.00 0.00 98 1011.0
20260506134004 51 0 4.3 0.0 0.00 0.00 0.00 10 1011.0
20260506132459 51 0 4.3 0.0 0.00 0.00 0.00 98 1010.0
20260506130954 51 0 8.7 0.0 0.00 0.00 0.00 97 1010.0
20260506125448 52 0 7.8 0.0 0.00 0.00 0.00 95 1010.0
20260506123943 52 0 9.6 0.0 0.00 0.00 0.00 95 1009.0
20260506122438 55 0 7.8 0.0 0.00 0.00 0.00 91 1009.0
20260506120933 56 0 2.6 0.0 0.00 0.00 0.00 84 1009.0
20260506115427 58 0 8.7 0.0 0.00 0.00 0.00 74 1008.0
20260506113922 59 0 3.5 0.0 0.00 0.00 0.00 73 1008.0
20260506112417 59 0 2.6 0.0 0.00 0.00 0.00 71 1008.0
20260506110912 59 0 0.0 0.0 0.00 0.00 0.00 71 1008.0
20260506105406 60 0 1.7 0.0 0.00 0.00 0.00 74 1008.0
20260506103901 59 0 0.0 0.0 0.00 0.00 0.00 72 1008.0
20260506102356 59 0 1.7 0.0 0.00 0.00 0.00 70 1008.0
20260506100851 59 0 2.6 0.0 0.00 0.00 0.00 69 1008.0
20260506095346 60 0 0.0 0.0 0.00 0.00 0.00 79 1008.0
20260506093840 59 0 0.0 0.0 0.00 0.00 0.00 79 1008.0
20260506092335 58 0 0.0 0.0 0.00 0.00 0.00 82 1008.0
20260506090830 58 0 0.0 0.0 0.00 0.00 0.00 78 1008.0
20260506085325 58 0 0.0 0.0 0.00 0.00 0.00 79 1008.0
20260506083819 58 0 0.0 0.0 0.00 0.00 0.00 79 1008.0
20260506082314 58 0 0.0 0.0 0.00 0.00 0.00 84 1008.0
20260506080809 57 0 0.0 0.0 0.00 0.00 0.00 86 1008.0
20260506072253 55 0 0.0 0.0 0.00 0.00 0.00 10 1008.0
20260506070748 54 0 0.0 0.0 0.00 0.00 0.00 10 1008.0
20260506062232 53 0 0.0 0.0 0.00 0.00 0.00 10 1008.0
20260506060727 52 0 0.0 0.0 0.00 0.00 0.00 10 1008.0
20260506050706 50 0 0.0 0.0 0.00 0.00 0.00 10 1009.0
20260506043656 49 0 0.0 0.0 0.00 0.00 0.00 10 1009.0
20260506040645 50 0 0.0 0.0 0.00 0.00 0.00 10 1009.0
20260506035140 50 0 0.0 0.0 0.00 0.00 0.00 10 1009.0
20260506033635 51 0 0.0 0.0 0.00 0.00 0.00 10 1009.0
20260506032129 51 0 0.0 0.0 0.00 0.00 0.00 10 1009.0
20260506030624 51 0 0.0 0.0 0.00 0.00 0.00 10 1009.0
20260506025119 52 0 0.0 0.0 0.00 0.00 0.00 10 1009.0
20260506023614 52 0 0.0 0.0 0.00 0.00 0.00 10 1009.0
20260506022108 52 0 0.0 0.0 0.00 0.00 0.00 10 1009.0
20260506020603 52 0 0.0 0.0 0.00 0.00 0.00 10 1010.0
20260506015058 52 0 0.0 0.0 0.00 0.00 0.00 99 1010.0
20260506013553 53 0 0.0 0.0 0.00 0.00 0.00 99 1010.0
20260506012047 52 0 0.0 0.0 0.00 0.00 0.00 10 1010.0
20260506010542 52 0 0.0 0.0 0.00 0.00 0.00 10 1010.0
20260506005037 52 0 0.0 0.0 0.00 0.00 0.00 10 1010.0
20260506003532 53 0 0.0 0.0 0.00 0.00 0.00 99 1010.0
20260506002026 53 0 0.0 0.0 0.00 0.00 0.00 99 1011.0
20260506000521 53 0 0.0 0.0 0.00 0.00 0.00 97 1011.0
20260505235016 53 0 0.0 0.0 0.00 0.00 0.00 97 1010.0
20260505233511 53 0 0.0 0.0 0.00 0.00 0.00 96 1011.0
20260505232005 55 0 0.0 0.0 0.00 0.00 0.00 94 1011.0
20260505230500 54 0 0.0 0.0 0.00 0.00 0.00 96 1011.0
20260505224955 54 0 0.0 0.0 0.00 0.00 0.00 96 1011.0
20260505223450 54 0 0.0 0.0 0.00 0.00 0.00 95 1011.0
20260505221945 54 0 0.0 0.0 0.00 0.00 0.00 96 1011.0
20260505220439 54 0 2.6 0.0 0.00 0.00 0.00 96 1011.0
20260505214934 54 0 0.0 0.0 0.00 0.00 0.00 97 1011.0
20260505213429 54 0 0.0 0.0 0.00 0.00 0.00 98 1011.0
20260505211924 54 0 0.0 0.0 0.00 0.00 0.00 10 1011.0
20260505210418 54 0 0.0 0.0 0.00 0.00 0.00 10 1011.0
20260505204913 54 0 0.0 0.0 0.00 0.00 0.00 10 1011.0
20260505203408 54 0 0.0 0.0 0.00 0.00 0.00 10 1011.0
20260505201903 54 0 0.0 0.0 0.00 0.00 0.00 10 1011.0
20260505194852 55 0 0.0 0.0 0.00 0.00 0.00 10 1011.0
20260505193347 55 0 0.0 0.0 0.00 0.00 0.00 10 1011.0
20260505191842 55 0 0.0 0.0 0.00 0.00 0.00 10 1011.0
20260505190336 55 0 6.1 0.0 0.00 0.00 0.00 10 1010.0
20260505184831 55 0 3.5 0.0 0.00 0.00 0.00 10 1010.0
20260505183326 55 0 7.0 0.0 0.00 0.00 0.00 10 1010.0
20260505181821 56 0 0.9 0.0 0.00 0.00 0.00 98 1010.0
20260505180315 56 0 4.3 0.0 0.00 0.00 0.00 98 1010.0
20260505174810 56 0 1.7 0.0 0.00 0.00 0.00 96 1010.0
20260505173305 56 0 7.0 0.0 0.00 0.00 0.00 94 1010.0
20260505171800 55 0 1.7 0.0 0.00 0.00 0.00 93 1010.0
20260505170255 57 0 2.6 0.0 0.00 0.00 0.00 85 1010.0
20260505164750 57 0 0.0 0.0 0.00 0.00 0.00 85 1010.0
20260505163244 57 0 0.0 0.0 0.00 0.00 0.00 81 1011.0
20260505161739 58 0 2.6 0.0 0.00 0.00 0.00 73 1010.0
20260505160234 59 0 1.7 0.0 0.00 0.00 0.00 65 1010.0